Regional Weather Roundup
Issued by NWS Little Rock, AR

Home | Current Version | Previous Version | Graphics & Text | Print | Product List | Glossary On
Versions: 1 2 3 4 5 6 7 8 9 10 11 12 13 14 15 16 17 18 19 20 21 22 23 24 25 26 27
000
ASUS44 KLZK 172305
RWRLZK

WEATHER ROUNDUP FOR ARKANSAS
NATIONAL WEATHER SERVICE LITTLE ROCK AR
600 PM CDT THU APR 17 2014

NOTE: "FAIR" INDICATES FEW OR NO CLOUDS BELOW 12,000 FEET WITH NO
SIGNIFICANT WEATHER AND/OR OBSTRUCTIONS TO VISIBILITY.

ARZ001-003-010-029-180000-
NORTHWEST ARKANSAS

CITY           SKY/WX    TMP DP  RH WIND       PRES   REMARKS
FAYETTEVILLE   PTSUNNY   65  40  39 NW9       30.18S
FORT SMITH     CLOUDY    69  40  34 E3        30.16F
HARRISON       SUNNY     68  32  26 NE3       30.17F
BENTONVILLE    PTSUNNY   63  37  39 N8        30.19F
ROGERS         CLOUDY    62  37  39 N10       30.19S
SILOAM SPGS    CLOUDY    61  39  44 NW13      30.21R
HIGHFILL       PTSUNNY   62  40  44 N9        30.18S
SPRINGDALE     PTSUNNY   64  37  36 NW9       30.19S
$$

ARZ004-005-016-180000-
NORTH CENTRAL ARKANSAS

CITY           SKY/WX    TMP DP  RH WIND       PRES   REMARKS
BATESVILLE     MOSUNNY   66  41  39 E13       30.18S
FLIPPIN        SUNNY     70  36  28 NE7       30.18S
MTN HOME       SUNNY     69  29  22 VRB3      30.17S
$$

ARZ040-041-180000-
WEST CENTRAL ARKANSAS

CITY           SKY/WX    TMP DP  RH WIND       PRES   REMARKS
MENA           CLOUDY    68  36  30 CALM      30.16R
MOUNT IDA      CLOUDY    67  36  31 SE6       30.14S
$$

ARZ009-017-025-026-028-180000-
NORTHEAST ARKANSAS

CITY           SKY/WX    TMP DP  RH WIND       PRES   REMARKS
CORNING        FAIR      66  41  39 CALM      30.22S
JONESBORO      MOSUNNY   67  38  34 S7        30.20F
NEWPORT        MOSUNNY   67  40  37 SE8       30.22R
WALNUT RIDGE   MOSUNNY   64  43  45 S6        30.22S
BLYTHEVILLE    MOSUNNY   67  39  35 S6        30.21F
$$

ARZ022-023-033-042-044-180000-
CENTRAL ARKANSAS

CITY           SKY/WX    TMP DP  RH WIND       PRES   REMARKS
LITTLE ROCK    PTSUNNY   68  39  34 E10       30.18F
N LITTLE ROCK  PTSUNNY   67  43  40 SE9       30.18F
JACKSONVILLE   MOSUNNY   69  40  34 SE6       30.19R
SEARCY         MOSUNNY   69  41  36 VRB5      30.20S
HOT SPRINGS    CLOUDY    69  35  28 S5        30.16S
RUSSELLVILLE   PTSUNNY   69  38  32 NE6       30.16S
CLINTON        FAIR      70  37  30 E3        30.18S
$$

ARZ036-180000-
EAST ARKANSAS

CITY           SKY/WX    TMP DP  RH WIND       PRES   REMARKS
WEST MEMPHIS   PTSUNNY   68  45  43 SW3       30.18F
$$

ARZ050-053-066-070-073-180000-
SOUTHWEST ARKANSAS

CITY           SKY/WX    TMP DP  RH WIND       PRES   REMARKS
ARKADELPHIA    FAIR      71  43  36 SE6       30.16F
CAMDEN         PTSUNNY   68  41  37 MISG      30.16F
TEXARKANA      SUNNY     67  41  38 E7        30.15S
EL DORADO      PTSUNNY   66  46  48 E8        30.15F
DE QUEEN       CLOUDY    65  43  44 S5        30.14S
$$

ARZ056-057-069-180000-
SOUTHEAST ARKANSAS

CITY           SKY/WX    TMP DP  RH WIND       PRES   REMARKS
PINE BLUFF     CLOUDY    66  47  50 SE7       30.19S
STUTTGART      CLOUDY    66  43  42 SE9       30.19F
MONTICELLO     CLOUDY    66  46  48 E3        30.17F

$$





USA.gov is the U.S. government's official web portal to all federal, state and local government web resources and services.